Find Starlink 5406

NORAD ID: 54860 Int'l Des: 2022-177 Owner: SPXS Country: US Constellation: starlink operational
LEOCIRCULAR

当前视图

正在加载3D地球...

About Starlink 5406

Starlink 5406 (NORAD 54860) is a starlink constellation satellite (v1.5) launched Dec 28, 2022 by SPXS of US. It operates in LEO, CIRCULAR orbit with a mass of 305.00 kg.

关于 Starlink 5406

正在加载描述...

即将过境

Passes for default location (London). Set your location on the main map for personalized predictions.

高度历史

Loading altitude history...

两行轨道根数

1 54860U 22177AS 26195.50954421 -.00000492 00000-0 -83643-5 0 9991
2 54860 43.0033 125.5674 0000962 258.1472 101.9272 15.27574786196486
Epoch: Jul 14, 2026 • Age: 11 hours

当前状态

高度 486.4 km
远地点 / 近地点 N/A
速度 7.63 km/s
星下点 40.98°N, 95.08°W
发射日期 Dec 28, 2022
运行时间 3.5 years
类型 internet

技术详情

分类 Payload
质量 305.00 kg
干质量 290.00 kg
总质量 305.00 kg
长度 0.20 m
直径 2.80 m
跨度 9.00 m
形状 Box + pan
制造商 SPXS
平台类型 Starlink
阶段状态 In Orbit
所有者/国家 SPXS/US

Most Searched